Location: Newark
(57.7279°N, 5.6916°W)
Time: 19:39:37
(UTC+00:00)

N. Korean satellite - Pass Details

Date: 11 December 2019
Orbit: 454 x 507 km, 97.2° (Epoch: 27 January)

Event Time Altitude Azimuth Distance (km) Brightness Sun altitude
Rises 07:39:00 0° 8° (N) 2,575 10.0 -9.0°
Reaches altitude 10° 07:41:20 10° 354° (N) 1,678 9.0 -8.7°
Maximum altitude 07:44:17 24° 299° (WNW) 1,033 7.6 -8.3°
Drops below altitude 10° 07:47:10 10° 244° (WSW) 1,642 8.9 -8.0°
Sets 07:49:27 0° 231° (SW) 2,506 10.0 -7.7°
